Time,TemperatureF,DewpointF,PressureIn,WindDirection,WindDirectionDegrees,WindSpeedMPH,WindSpeedGustMPH,Humidity,HourlyPrecipIn,Conditions,Clouds,dailyrainin,SoftwareType,DateUTC
2013-01-12 00:00:00,32.2,29.4,30.32,North,0,0.0,0.4,89,0.00,,,0.00,WUHU216HW,2013-01-12 05:00:00,
2013-01-12 00:01:00,32.2,29.4,30.32,North,0,0.0,0.4,89,0.00,,,0.00,WUHU216HW,2013-01-12 05:01:00,
2013-01-12 00:03:00,32.4,29.5,30.32,North,0,0.0,0.4,89,0.00,,,0.00,WUHU216HW,2013-01-12 05:03:00,
2013-01-12 00:08:00,32.4,29.5,30.32,North,0,0.0,0.2,89,0.00,,,0.00,WUHU216HW,2013-01-12 05:08:00,
2013-01-12 00:13:00,32.4,29.3,30.32,North,0,0.0,0.0,88,0.00,,,0.00,WUHU216HW,2013-01-12 05:13:00,
2013-01-12 00:18:00,32.4,29.3,30.32,North,0,0.0,0.0,88,0.00,,,0.00,WUHU216HW,2013-01-12 05:18:00,
2013-01-12 00:23:00,32.2,29.1,30.33,North,0,0.0,0.4,88,0.00,,,0.00,WUHU216HW,2013-01-12 05:23:00,
2013-01-12 00:28:00,32.0,29.0,30.32,North,0,0.2,0.4,88,0.00,,,0.00,WUHU216HW,2013-01-12 05:28:00,
2013-01-12 00:33:00,32.2,29.4,30.32,North,0,0.0,0.4,89,0.00,,,0.00,WUHU216HW,2013-01-12 05:33:00,
2013-01-12 00:38:00,32.0,29.0,30.33,North,0,0.0,0.0,88,0.00,,,0.00,WUHU216HW,2013-01-12 05:38:00,
2013-01-12 00:43:00,32.0,29.0,30.32,North,0,0.0,0.0,88,0.00,,,0.00,WUHU216HW,2013-01-12 05:43:00,
2013-01-12 00:48:00,32.0,29.0,30.33,North,0,0.0,0.0,88,0.00,,,0.00,WUHU216HW,2013-01-12 05:48:00,
2013-01-12 00:53:00,31.9,28.8,30.33,North,0,0.2,0.2,88,0.00,,,0.00,WUHU216HW,2013-01-12 05:53:00,
2013-01-12 00:58:00,31.7,28.6,30.33,North,0,0.2,0.4,88,0.00,,,0.00,WUHU216HW,2013-01-12 05:58:00,
2013-01-12 01:03:00,31.5,28.7,30.33,North,0,0.0,0.4,89,0.00,,,0.00,WUHU216HW,2013-01-12 06:03:00,
2013-01-12 01:08:00,31.3,28.5,30.33,North,0,0.2,0.7,89,0.00,,,0.00,WUHU216HW,2013-01-12 06:08:00,
2013-01-12 01:13:00,31.3,28.5,30.33,North,0,0.0,0.7,89,0.00,,,0.00,WUHU216HW,2013-01-12 06:13:00,
2013-01-12 01:18:00,31.3,28.5,30.33,North,0,0.0,0.2,89,0.00,,,0.00,WUHU216HW,2013-01-12 06:18:00,
2013-01-12 01:23:00,31.3,28.5,30.33,North,0,0.0,0.4,89,0.00,,,0.00,WUHU216HW,2013-01-12 06:23:00,
2013-01-12 01:28:00,31.3,28.5,30.33,North,0,0.0,0.4,89,0.00,,,0.00,WUHU216HW,2013-01-12 06:28:00,
2013-01-12 01:33:00,31.3,28.8,30.33,North,0,0.2,0.2,90,0.00,,,0.00,WUHU216HW,2013-01-12 06:33:00,
2013-01-12 01:38:00,31.3,28.5,30.33,North,0,0.4,0.7,89,0.00,,,0.00,WUHU216HW,2013-01-12 06:38:00,
2013-01-12 01:43:00,31.1,28.4,30.33,North,0,0.4,0.7,89,0.00,,,0.00,WUHU216HW,2013-01-12 06:43:00,
2013-01-12 01:48:00,31.1,28.6,30.33,North,0,0.0,0.7,90,0.00,,,0.00,WUHU216HW,2013-01-12 06:48:00,
2013-01-12 01:53:00,31.1,28.6,30.33,North,0,0.2,0.7,90,0.00,,,0.00,WUHU216HW,2013-01-12 06:53:00,
2013-01-12 01:58:00,31.3,29.1,30.33,North,0,0.4,0.7,91,0.00,,,0.00,WUHU216HW,2013-01-12 06:58:00,
2013-01-12 02:03:00,31.1,28.9,30.33,North,0,0.0,1.1,91,0.00,,,0.00,WUHU216HW,2013-01-12 07:03:00,
2013-01-12 02:08:00,31.3,29.1,30.33,North,0,0.7,1.1,91,0.00,,,0.00,WUHU216HW,2013-01-12 07:08:00,
2013-01-12 02:13:00,31.3,29.1,30.32,North,0,0.4,0.9,91,0.00,,,0.00,WUHU216HW,2013-01-12 07:13:00,
2013-01-12 02:18:00,31.3,29.1,30.33,North,0,0.0,0.9,91,0.00,,,0.00,WUHU216HW,2013-01-12 07:18:00,
2013-01-12 02:23:00,31.3,29.1,30.32,North,0,0.2,0.4,91,0.00,,,0.00,WUHU216HW,2013-01-12 07:23:00,
2013-01-12 02:28:00,31.3,29.1,30.32,North,0,0.4,0.4,91,0.00,,,0.00,WUHU216HW,2013-01-12 07:28:00,
2013-01-12 02:33:00,31.3,29.1,30.32,North,0,0.7,0.7,91,0.00,,,0.00,WUHU216HW,2013-01-12 07:33:00,
2013-01-12 02:38:00,31.3,29.1,30.32,North,0,1.1,1.6,91,0.00,,,0.00,WUHU216HW,2013-01-12 07:38:00,
2013-01-12 02:43:00,31.1,28.9,30.32,North,0,0.7,1.8,91,0.00,,,0.00,WUHU216HW,2013-01-12 07:43:00,
2013-01-12 02:48:00,31.0,28.7,30.32,North,0,0.0,1.8,91,0.00,,,0.00,WUHU216HW,2013-01-12 07:48:00,
2013-01-12 02:53:00,30.8,28.5,30.32,North,0,1.3,1.3,91,0.00,,,0.00,WUHU216HW,2013-01-12 07:53:00,
2013-01-12 02:58:00,30.6,28.4,30.32,North,0,0.4,1.8,91,0.00,,,0.00,WUHU216HW,2013-01-12 07:58:00,
2013-01-12 03:03:00,30.6,28.4,30.32,North,0,2.0,2.0,91,0.00,,,0.00,WUHU216HW,2013-01-12 08:03:00,
2013-01-12 03:08:00,30.6,28.4,30.32,North,0,0.0,2.0,91,0.00,,,0.00,WUHU216HW,2013-01-12 08:08:00,
2013-01-12 03:13:00,30.4,28.2,30.32,North,0,1.8,1.8,91,0.00,,,0.00,WUHU216HW,2013-01-12 08:13:00,
2013-01-12 03:18:00,30.6,28.4,30.32,North,0,0.9,1.8,91,0.00,,,0.00,WUHU216HW,2013-01-12 08:18:00,
2013-01-12 03:23:00,30.6,28.4,30.32,North,0,0.2,1.1,91,0.00,,,0.00,WUHU216HW,2013-01-12 08:23:00,
2013-01-12 03:28:00,30.4,28.2,30.32,North,0,0.7,1.8,91,0.00,,,0.00,WUHU216HW,2013-01-12 08:28:00,
2013-01-12 03:33:00,30.6,28.4,30.33,North,0,0.2,1.8,91,0.00,,,0.00,WUHU216HW,2013-01-12 08:33:00,
2013-01-12 03:38:00,30.6,28.6,30.33,North,0,0.7,0.9,92,0.00,,,0.00,WUHU216HW,2013-01-12 08:38:00,
2013-01-12 03:43:00,30.2,28.3,30.33,North,0,0.9,0.9,92,0.00,,,0.00,WUHU216HW,2013-01-12 08:43:00,
2013-01-12 03:48:00,30.2,28.3,30.33,North,0,0.9,1.1,92,0.00,,,0.00,WUHU216HW,2013-01-12 08:48:00,
2013-01-12 03:53:00,30.2,28.3,30.33,North,0,0.4,1.3,92,0.00,,,0.00,WUHU216HW,2013-01-12 08:53:00,
2013-01-12 03:58:00,30.1,28.1,30.33,North,0,0.9,1.3,92,0.00,,,0.00,WUHU216HW,2013-01-12 08:58:00,
2013-01-12 04:03:00,30.1,28.1,30.33,North,0,0.4,1.1,92,0.00,,,0.00,WUHU216HW,2013-01-12 09:03:00,
2013-01-12 04:08:00,29.9,27.9,30.33,North,0,0.9,1.3,92,0.00,,,0.00,WUHU216HW,2013-01-12 09:08:00,
2013-01-12 04:13:00,29.7,27.7,30.33,North,0,1.1,1.3,92,0.00,,,0.00,WUHU216HW,2013-01-12 09:13:00,
2013-01-12 04:18:00,29.5,27.7,30.33,North,0,0.7,1.1,93,0.00,,,0.00,WUHU216HW,2013-01-12 09:18:00,
2013-01-12 04:23:00,29.3,27.4,30.33,North,0,1.6,1.6,92,0.00,,,0.00,WUHU216HW,2013-01-12 09:23:00,
2013-01-12 04:28:00,29.3,27.4,30.33,North,0,1.1,1.6,92,0.00,,,0.00,WUHU216HW,2013-01-12 09:28:00,
2013-01-12 04:33:00,29.3,27.4,30.33,North,0,0.2,1.1,92,0.00,,,0.00,WUHU216HW,2013-01-12 09:33:00,
2013-01-12 04:38:00,29.3,27.4,30.33,North,0,0.0,0.2,92,0.00,,,0.00,WUHU216HW,2013-01-12 09:38:00,
2013-01-12 04:43:00,29.5,27.6,30.33,North,0,0.0,0.7,92,0.00,,,0.00,WUHU216HW,2013-01-12 09:43:00,
2013-01-12 04:48:00,29.5,27.6,30.33,North,0,1.3,1.3,92,0.00,,,0.00,WUHU216HW,2013-01-12 09:48:00,
2013-01-12 04:53:00,29.3,27.4,30.33,North,0,0.4,1.3,92,0.00,,,0.00,WUHU216HW,2013-01-12 09:53:00,
2013-01-12 04:58:00,29.2,27.2,30.33,North,0,0.2,0.7,92,0.00,,,0.00,WUHU216HW,2013-01-12 09:58:00,
2013-01-12 05:03:00,29.2,27.2,30.33,North,0,0.7,1.1,92,0.00,,,0.00,WUHU216HW,2013-01-12 10:03:00,
2013-01-12 05:08:00,29.3,27.4,30.33,North,0,0.7,1.1,92,0.00,,,0.00,WUHU216HW,2013-01-12 10:08:00,
2013-01-12 05:13:00,29.3,27.4,30.33,North,0,0.9,0.9,92,0.00,,,0.00,WUHU216HW,2013-01-12 10:13:00,
2013-01-12 05:18:00,29.2,27.2,30.33,North,0,0.7,0.9,92,0.00,,,0.00,WUHU216HW,2013-01-12 10:18:00,
2013-01-12 05:23:00,29.2,27.2,30.33,North,0,0.2,0.9,92,0.00,,,0.00,WUHU216HW,2013-01-12 10:23:00,
2013-01-12 05:28:00,29.2,27.2,30.33,North,0,0.4,0.9,92,0.00,,,0.00,WUHU216HW,2013-01-12 10:28:00,
2013-01-12 05:33:00,29.2,27.2,30.34,North,0,0.0,1.1,92,0.00,,,0.00,WUHU216HW,2013-01-12 10:33:00,
2013-01-12 05:38:00,29.2,27.2,30.33,North,0,0.4,1.1,92,0.00,,,0.00,WUHU216HW,2013-01-12 10:38:00,
2013-01-12 05:43:00,29.2,27.2,30.33,North,0,0.7,0.9,92,0.00,,,0.00,WUHU216HW,2013-01-12 10:43:00,
2013-01-12 05:48:00,29.2,26.9,30.34,North,0,0.4,0.9,91,0.00,,,0.00,WUHU216HW,2013-01-12 10:48:00,
2013-01-12 05:53:00,29.2,26.9,30.34,North,0,0.4,0.4,91,0.00,,,0.00,WUHU216HW,2013-01-12 10:53:00,
2013-01-12 05:58:00,29.2,26.9,30.34,North,0,0.2,0.4,91,0.00,,,0.00,WUHU216HW,2013-01-12 10:58:00,
2013-01-12 06:03:00,29.2,26.9,30.33,North,0,0.4,0.4,91,0.00,,,0.00,WUHU216HW,2013-01-12 11:03:00,
2013-01-12 06:08:00,29.2,26.9,30.33,North,0,0.0,0.7,91,0.00,,,0.00,WUHU216HW,2013-01-12 11:08:00,
2013-01-12 06:13:00,29.2,26.9,30.33,North,0,0.0,0.7,91,0.00,,,0.00,WUHU216HW,2013-01-12 11:13:00,
2013-01-12 06:18:00,29.2,26.9,30.33,North,0,0.4,0.7,91,0.00,,,0.00,WUHU216HW,2013-01-12 11:18:00,
2013-01-12 06:23:00,29.0,26.7,30.33,North,0,0.4,0.7,91,0.00,,,0.00,WUHU216HW,2013-01-12 11:23:00,
2013-01-12 06:28:00,29.0,26.7,30.33,North,0,0.4,0.9,91,0.00,,,0.00,WUHU216HW,2013-01-12 11:28:00,
2013-01-12 06:33:00,29.0,26.7,30.34,North,0,0.2,0.9,91,0.00,,,0.00,WUHU216HW,2013-01-12 11:33:00,
2013-01-12 06:38:00,29.0,26.7,30.33,North,0,0.4,0.7,91,0.00,,,0.00,WUHU216HW,2013-01-12 11:38:00,
2013-01-12 06:43:00,29.0,26.7,30.33,North,0,1.1,1.1,91,0.00,,,0.00,WUHU216HW,2013-01-12 11:43:00,
2013-01-12 06:48:00,28.8,26.6,30.33,North,0,0.4,1.1,91,0.00,,,0.00,WUHU216HW,2013-01-12 11:48:00,
2013-01-12 06:53:00,28.8,26.6,30.33,North,0,0.4,1.6,91,0.00,,,0.00,WUHU216HW,2013-01-12 11:53:00,
2013-01-12 06:58:00,28.6,26.4,30.34,North,0,0.0,1.6,91,0.00,,,0.00,WUHU216HW,2013-01-12 11:58:00,
2013-01-12 07:03:00,28.6,26.4,30.33,North,0,0.0,0.4,91,0.00,,,0.00,WUHU216HW,2013-01-12 12:03:00,
2013-01-12 07:08:00,28.6,26.4,30.34,North,0,0.2,0.4,91,0.00,,,0.00,WUHU216HW,2013-01-12 12:08:00,
2013-01-12 07:13:00,28.4,26.2,30.34,North,0,0.4,0.9,91,0.00,,,0.00,WUHU216HW,2013-01-12 12:13:00,
2013-01-12 07:18:00,28.6,26.4,30.34,North,0,0.2,0.9,91,0.00,,,0.00,WUHU216HW,2013-01-12 12:18:00,
2013-01-12 07:23:00,28.4,26.2,30.34,North,0,0.4,0.7,91,0.00,,,0.00,WUHU216HW,2013-01-12 12:23:00,
2013-01-12 07:28:00,28.4,26.2,30.34,North,0,0.2,0.4,91,0.00,,,0.00,WUHU216HW,2013-01-12 12:28:00,
2013-01-12 07:33:00,28.4,26.2,30.34,North,0,0.7,1.1,91,0.00,,,0.00,WUHU216HW,2013-01-12 12:33:00,
2013-01-12 07:38:00,28.4,26.2,30.34,North,0,0.7,1.1,91,0.00,,,0.00,WUHU216HW,2013-01-12 12:38:00,
2013-01-12 07:43:00,28.4,26.2,30.34,North,0,0.0,0.7,91,0.00,,,0.00,WUHU216HW,2013-01-12 12:43:00,
2013-01-12 07:48:00,28.4,26.2,30.34,North,0,0.4,0.7,91,0.00,,,0.00,WUHU216HW,2013-01-12 12:48:00,
2013-01-12 07:53:00,28.3,26.0,30.34,North,0,0.4,0.7,91,0.00,,,0.00,WUHU216HW,2013-01-12 12:53:00,
2013-01-12 07:58:00,28.3,26.0,30.34,North,0,0.0,0.4,91,0.00,,,0.00,WUHU216HW,2013-01-12 12:58:00,
2013-01-12 08:03:00,28.3,26.0,30.34,North,0,0.9,0.9,91,0.00,,,0.00,WUHU216HW,2013-01-12 13:03:00,
2013-01-12 08:08:00,28.3,26.0,30.34,North,0,0.7,0.9,91,0.00,,,0.00,WUHU216HW,2013-01-12 13:08:00,
2013-01-12 08:13:00,28.1,25.8,30.34,North,0,0.2,1.1,91,0.00,,,0.00,WUHU216HW,2013-01-12 13:13:00,
2013-01-12 08:18:00,28.3,26.0,30.34,North,0,0.4,1.1,91,0.00,,,0.00,WUHU216HW,2013-01-12 13:18:00,
2013-01-12 08:23:00,28.4,26.2,30.34,North,0,0.2,0.9,91,0.00,,,0.00,WUHU216HW,2013-01-12 13:23:00,
2013-01-12 08:28:00,28.4,26.2,30.34,North,0,0.0,0.9,91,0.00,,,0.00,WUHU216HW,2013-01-12 13:28:00,
2013-01-12 08:33:00,28.4,26.2,30.34,North,0,0.7,0.9,91,0.00,,,0.00,WUHU216HW,2013-01-12 13:33:00,
2013-01-12 08:38:00,28.4,26.2,30.34,North,0,0.0,0.7,91,0.00,,,0.00,WUHU216HW,2013-01-12 13:38:00,
2013-01-12 08:43:00,28.6,26.4,30.34,North,0,0.0,0.4,91,0.00,,,0.00,WUHU216HW,2013-01-12 13:43:00,
2013-01-12 08:48:00,28.6,26.4,30.34,North,0,0.2,0.4,91,0.00,,,0.00,WUHU216HW,2013-01-12 13:48:00,
2013-01-12 08:53:00,28.6,26.4,30.34,North,0,0.4,0.4,91,0.00,,,0.00,WUHU216HW,2013-01-12 13:53:00,
2013-01-12 08:58:00,28.6,26.4,30.34,North,0,0.0,0.4,91,0.00,,,0.00,WUHU216HW,2013-01-12 13:58:00,
2013-01-12 09:03:00,28.6,26.4,30.34,North,0,0.2,0.4,91,0.00,,,0.00,WUHU216HW,2013-01-12 14:03:00,
2013-01-12 09:08:00,28.6,26.4,30.34,North,0,0.2,0.4,91,0.00,,,0.00,WUHU216HW,2013-01-12 14:08:00,
2013-01-12 09:13:00,28.8,26.6,30.34,North,0,0.0,0.2,91,0.00,,,0.00,WUHU216HW,2013-01-12 14:13:00,
2013-01-12 09:18:00,28.8,26.6,30.34,North,0,0.0,0.4,91,0.00,,,0.00,WUHU216HW,2013-01-12 14:18:00,
2013-01-12 09:23:00,28.6,26.4,30.34,North,0,0.2,0.4,91,0.00,,,0.00,WUHU216HW,2013-01-12 14:23:00,
2013-01-12 09:28:00,28.6,26.4,30.34,North,0,0.4,0.7,91,0.00,,,0.00,WUHU216HW,2013-01-12 14:28:00,
2013-01-12 09:33:00,28.8,26.6,30.34,North,0,0.4,0.9,91,0.00,,,0.00,WUHU216HW,2013-01-12 14:33:00,
2013-01-12 09:38:00,28.8,26.6,30.34,North,0,0.2,0.9,91,0.00,,,0.00,WUHU216HW,2013-01-12 14:38:00,
2013-01-12 09:43:00,28.8,26.6,30.34,North,0,0.9,0.9,91,0.00,,,0.00,WUHU216HW,2013-01-12 14:43:00,
2013-01-12 09:48:00,28.8,26.6,30.34,North,0,0.4,0.9,91,0.00,,,0.00,WUHU216HW,2013-01-12 14:48:00,
2013-01-12 09:53:00,28.8,26.6,30.34,North,0,0.2,0.7,91,0.00,,,0.00,WUHU216HW,2013-01-12 14:53:00,
2013-01-12 09:58:00,28.8,26.6,30.34,North,0,0.4,0.9,91,0.00,,,0.00,WUHU216HW,2013-01-12 14:58:00,
2013-01-12 10:03:00,29.0,26.7,30.34,North,0,0.2,0.9,91,0.00,,,0.00,WUHU216HW,2013-01-12 15:03:00,
2013-01-12 10:08:00,29.0,26.7,30.34,North,0,0.7,0.7,91,0.00,,,0.00,WUHU216HW,2013-01-12 15:08:00,
2013-01-12 10:13:00,29.0,26.7,30.35,North,0,0.0,0.7,91,0.00,,,0.00,WUHU216HW,2013-01-12 15:13:00,
2013-01-12 10:18:00,29.0,26.7,30.35,North,0,0.0,0.7,91,0.00,,,0.00,WUHU216HW,2013-01-12 15:18:00,
2013-01-12 10:23:00,29.0,26.7,30.35,North,0,0.2,0.7,91,0.00,,,0.00,WUHU216HW,2013-01-12 15:23:00,
2013-01-12 10:28:00,29.0,26.7,30.35,North,0,0.4,0.4,91,0.00,,,0.00,WUHU216HW,2013-01-12 15:28:00,
2013-01-12 10:33:00,29.0,26.7,30.35,North,0,0.4,0.9,91,0.00,,,0.00,WUHU216HW,2013-01-12 15:33:00,
2013-01-12 10:38:00,28.8,26.6,30.36,North,0,0.7,0.9,91,0.00,,,0.00,WUHU216HW,2013-01-12 15:38:00,
2013-01-12 10:43:00,28.8,26.6,30.36,North,0,0.4,0.7,91,0.00,,,0.00,WUHU216HW,2013-01-12 15:43:00,
2013-01-12 10:48:00,29.0,26.7,30.36,North,0,0.4,0.4,91,0.00,,,0.00,WUHU216HW,2013-01-12 15:48:00,
2013-01-12 10:53:00,29.0,26.7,30.36,North,0,0.4,0.9,91,0.00,,,0.00,WUHU216HW,2013-01-12 15:53:00,
2013-01-12 10:58:00,29.0,26.7,30.37,North,0,0.7,0.9,91,0.00,,,0.00,WUHU216HW,2013-01-12 15:58:00,
2013-01-12 11:03:00,29.0,26.7,30.37,North,0,0.4,0.7,91,0.00,,,0.00,WUHU216HW,2013-01-12 16:03:00,
2013-01-12 11:08:00,29.0,26.7,30.37,North,0,1.1,1.1,91,0.00,,,0.00,WUHU216HW,2013-01-12 16:08:00,
2013-01-12 11:13:00,29.0,26.7,30.37,North,0,0.0,1.1,91,0.00,,,0.00,WUHU216HW,2013-01-12 16:13:00,
2013-01-12 11:18:00,29.2,26.9,30.37,North,0,0.0,0.9,91,0.00,,,0.00,WUHU216HW,2013-01-12 16:18:00,
2013-01-12 11:23:00,29.2,26.9,30.37,North,0,0.0,0.4,91,0.00,,,0.00,WUHU216HW,2013-01-12 16:23:00,
2013-01-12 11:28:00,29.2,26.9,30.37,North,0,0.4,0.4,91,0.00,,,0.00,WUHU216HW,2013-01-12 16:28:00,
2013-01-12 11:32:00,29.2,26.9,30.37,North,0,0.4,0.4,91,0.00,,,0.00,WUHU216HW,2013-01-12 16:32:00,
2013-01-12 11:37:00,29.2,26.9,30.37,North,0,0.7,0.7,91,0.00,,,0.00,WUHU216HW,2013-01-12 16:37:00,
2013-01-12 11:43:00,29.2,26.9,30.38,North,0,1.1,1.1,91,0.00,,,0.00,WUHU216HW,2013-01-12 16:43:00,
2013-01-12 11:47:00,29.2,26.9,30.38,North,0,1.1,1.3,91,0.00,,,0.00,WUHU216HW,2013-01-12 16:47:00,
2013-01-12 11:53:00,29.2,26.9,30.38,North,0,0.2,1.3,91,0.00,,,0.00,WUHU216HW,2013-01-12 16:53:00,
2013-01-12 11:57:00,29.3,27.1,30.38,North,0,0.9,0.9,91,0.00,,,0.00,WUHU216HW,2013-01-12 16:57:00,
2013-01-12 12:02:00,29.5,27.3,30.38,North,0,0.4,0.9,91,0.00,,,0.00,WUHU216HW,2013-01-12 17:02:00,
2013-01-12 12:07:00,29.5,27.3,30.38,North,0,0.7,0.9,91,0.00,,,0.00,WUHU216HW,2013-01-12 17:07:00,
2013-01-12 12:13:00,29.9,27.6,30.38,North,0,0.0,0.9,91,0.00,,,0.00,WUHU216HW,2013-01-12 17:13:00,
2013-01-12 12:18:00,29.9,27.4,30.38,North,0,0.4,0.9,90,0.00,,,0.00,WUHU216HW,2013-01-12 17:18:00,
2013-01-12 12:23:00,30.1,27.5,30.38,North,0,0.7,1.3,90,0.00,,,0.00,WUHU216HW,2013-01-12 17:23:00,
2013-01-12 12:27:00,30.2,27.7,30.39,North,0,1.8,1.8,90,0.00,,,0.00,WUHU216HW,2013-01-12 17:27:00,
2013-01-12 12:32:00,30.4,27.9,30.38,North,0,1.1,1.8,90,0.00,,,0.00,WUHU216HW,2013-01-12 17:32:00,
2013-01-12 12:37:00,30.6,28.1,30.38,North,0,0.9,1.8,90,0.00,,,0.00,WUHU216HW,2013-01-12 17:37:00,
2013-01-12 12:42:00,31.0,28.2,30.38,North,0,0.4,1.8,89,0.00,,,0.00,WUHU216HW,2013-01-12 17:42:00,
2013-01-12 12:47:00,31.3,28.8,30.38,North,0,0.7,1.1,90,0.00,,,0.00,WUHU216HW,2013-01-12 17:47:00,
2013-01-12 12:52:00,31.5,28.7,30.39,North,0,0.4,0.9,89,0.00,,,0.00,WUHU216HW,2013-01-12 17:52:00,
2013-01-12 12:57:00,31.9,29.1,30.39,North,0,2.0,2.0,89,0.00,,,0.00,WUHU216HW,2013-01-12 17:57:00,
2013-01-12 13:02:00,32.0,29.0,30.39,North,0,0.4,2.0,88,0.00,,,0.00,WUHU216HW,2013-01-12 18:02:00,
2013-01-12 13:07:00,32.0,29.0,30.39,North,0,0.4,1.1,88,0.00,,,0.00,WUHU216HW,2013-01-12 18:07:00,
2013-01-12 13:12:00,32.4,29.3,30.40,North,0,0.2,1.1,88,0.00,,,0.00,WUHU216HW,2013-01-12 18:12:00,
2013-01-12 13:17:00,33.3,30.1,30.39,North,0,0.2,1.1,88,0.00,,,0.00,WUHU216HW,2013-01-12 18:17:00,
2013-01-12 13:22:00,33.5,29.7,30.39,North,0,0.0,1.6,86,0.01,,,0.01,WUHU216HW,2013-01-12 18:22:00,
2013-01-12 13:27:00,33.5,29.3,30.39,North,0,1.6,1.6,85,0.01,,,0.01,WUHU216HW,2013-01-12 18:27:00,
2013-01-12 13:32:00,33.8,30.0,30.39,North,0,0.9,1.6,86,0.01,,,0.01,WUHU216HW,2013-01-12 18:32:00,
2013-01-12 13:37:00,35.5,31.6,30.39,North,0,0.2,1.1,86,0.01,,,0.01,WUHU216HW,2013-01-12 18:37:00,
2013-01-12 13:42:00,36.0,31.0,30.39,North,0,1.8,1.8,82,0.01,,,0.01,WUHU216HW,2013-01-12 18:42:00,
2013-01-12 13:47:00,35.3,30.0,30.39,North,0,0.0,1.8,81,0.01,,,0.01,WUHU216HW,2013-01-12 18:47:00,
2013-01-12 13:52:00,35.5,30.8,30.39,North,0,0.0,0.7,83,0.01,,,0.01,WUHU216HW,2013-01-12 18:52:00,
2013-01-12 13:57:00,36.7,32.3,30.39,SSW,203,1.6,1.6,84,0.01,,,0.01,WUHU216HW,2013-01-12 18:57:00,
2013-01-12 14:02:00,38.0,32.7,30.39,SSE,158,1.8,1.8,81,0.01,,,0.01,WUHU216HW,2013-01-12 19:02:00,
2013-01-12 14:07:00,38.5,32.6,30.39,ENE,68,0.2,1.8,79,0.01,,,0.01,WUHU216HW,2013-01-12 19:07:00,
2013-01-12 14:12:00,38.9,32.9,30.39,ENE,68,1.1,1.1,79,0.01,,,0.01,WUHU216HW,2013-01-12 19:12:00,
2013-01-12 14:17:00,38.2,31.2,30.39,NNE,23,0.4,1.3,76,0.01,,,0.01,WUHU216HW,2013-01-12 19:17:00,
2013-01-12 14:22:00,39.1,32.8,30.39,SSE,158,0.0,1.6,78,0.00,,,0.01,WUHU216HW,2013-01-12 19:22:00,
2013-01-12 14:27:00,39.8,32.8,30.39,SE,135,0.7,1.8,76,0.00,,,0.01,WUHU216HW,2013-01-12 19:27:00,
2013-01-12 14:32:00,40.7,33.3,30.39,ESE,113,0.0,1.8,75,0.00,,,0.01,WUHU216HW,2013-01-12 19:32:00,
2013-01-12 14:37:00,41.0,33.0,30.39,ENE,68,1.3,1.3,73,0.00,,,0.01,WUHU216HW,2013-01-12 19:37:00,
2013-01-12 14:42:00,41.9,33.3,30.39,NNE,23,0.4,1.3,71,0.00,,,0.01,WUHU216HW,2013-01-12 19:42:00,
2013-01-12 14:47:00,42.1,33.5,30.39,North,0,0.9,1.8,71,0.00,,,0.01,WUHU216HW,2013-01-12 19:47:00,
2013-01-12 14:52:00,42.1,33.5,30.39,North,0,1.6,1.8,71,0.00,,,0.01,WUHU216HW,2013-01-12 19:52:00,
2013-01-12 14:57:00,41.6,31.4,30.39,North,0,2.5,2.7,67,0.00,,,0.01,WUHU216HW,2013-01-12 19:57:00,
2013-01-12 15:02:00,40.5,31.5,30.39,North,0,1.1,2.7,70,0.00,,,0.01,WUHU216HW,2013-01-12 20:02:00,
2013-01-12 15:07:00,39.8,29.6,30.39,NNE,23,0.4,2.5,67,0.00,,,0.01,WUHU216HW,2013-01-12 20:07:00,
2013-01-12 15:12:00,40.0,31.3,30.38,North,0,1.3,2.5,71,0.00,,,0.01,WUHU216HW,2013-01-12 20:12:00,
2013-01-12 15:17:00,39.2,29.1,30.38,SE,135,1.6,1.6,67,0.00,,,0.01,WUHU216HW,2013-01-12 20:17:00,
2013-01-12 15:22:00,38.7,28.6,30.38,NE,45,0.7,2.5,67,0.00,,,0.01,WUHU216HW,2013-01-12 20:22:00,
2013-01-12 15:27:00,38.5,28.1,30.37,NE,45,2.7,3.1,66,0.00,,,0.01,WUHU216HW,2013-01-12 20:27:00,
2013-01-12 15:32:00,38.3,28.3,30.37,North,0,2.5,3.1,67,0.00,,,0.01,WUHU216HW,2013-01-12 20:32:00,
2013-01-12 15:37:00,38.3,28.3,30.37,ENE,68,1.1,2.5,67,0.00,,,0.01,WUHU216HW,2013-01-12 20:37:00,
2013-01-12 15:42:00,38.3,28.7,30.37,NNE,23,1.1,4.5,68,0.00,,,0.01,WUHU216HW,2013-01-12 20:42:00,
2013-01-12 15:47:00,38.3,29.1,30.37,NE,45,2.5,4.5,69,0.00,,,0.01,WUHU216HW,2013-01-12 20:47:00,
2013-01-12 15:52:00,38.2,28.9,30.37,ENE,68,1.3,2.5,69,0.00,,,0.01,WUHU216HW,2013-01-12 20:52:00,
2013-01-12 15:57:00,38.2,29.3,30.37,North,0,0.7,1.8,70,0.00,,,0.01,WUHU216HW,2013-01-12 20:57:00,
2013-01-12 16:02:00,38.2,28.9,30.37,NNE,23,2.2,2.2,69,0.00,,,0.01,WUHU216HW,2013-01-12 21:02:00,
2013-01-12 16:07:00,38.2,28.9,30.38,NNE,23,1.6,3.8,69,0.00,,,0.01,WUHU216HW,2013-01-12 21:07:00,
2013-01-12 16:12:00,38.3,29.4,30.38,North,0,3.4,3.8,70,0.00,,,0.01,WUHU216HW,2013-01-12 21:12:00,
2013-01-12 16:17:00,38.5,30.0,30.38,ENE,68,0.4,3.4,71,0.00,,,0.01,WUHU216HW,2013-01-12 21:17:00,
2013-01-12 16:22:00,38.7,30.1,30.38,NNE,23,1.8,1.8,71,0.00,,,0.01,WUHU216HW,2013-01-12 21:22:00,
2013-01-12 16:27:00,38.9,30.2,30.38,ENE,68,0.0,1.8,71,0.00,,,0.01,WUHU216HW,2013-01-12 21:27:00,
2013-01-12 16:32:00,38.9,30.2,30.38,NNW,338,0.4,2.0,71,0.00,,,0.01,WUHU216HW,2013-01-12 21:32:00,
2013-01-12 16:37:00,38.9,30.2,30.39,North,0,1.8,3.1,71,0.00,,,0.01,WUHU216HW,2013-01-12 21:37:00,
2013-01-12 16:42:00,38.9,29.9,30.39,NE,45,1.8,3.1,70,0.00,,,0.01,WUHU216HW,2013-01-12 21:42:00,
2013-01-12 16:47:00,38.5,28.8,30.39,NNW,338,1.1,3.4,68,0.00,,,0.01,WUHU216HW,2013-01-12 21:47:00,
2013-01-12 16:52:00,38.3,27.9,30.38,North,0,2.2,4.0,66,0.00,,,0.01,WUHU216HW,2013-01-12 21:52:00,
2013-01-12 16:58:00,38.2,27.7,30.39,NNE,23,2.2,5.4,66,0.00,,,0.01,WUHU216HW,2013-01-12 21:58:00,
2013-01-12 17:03:00,37.8,26.6,30.39,North,0,3.1,5.4,64,0.00,,,0.01,WUHU216HW,2013-01-12 22:03:00,
2013-01-12 17:08:00,37.6,26.1,30.39,North,0,2.9,5.4,63,0.00,,,0.01,WUHU216HW,2013-01-12 22:08:00,
2013-01-12 17:12:00,37.4,26.0,30.39,NE,45,1.6,5.4,63,0.00,,,0.01,WUHU216HW,2013-01-12 22:12:00,
2013-01-12 17:17:00,37.3,26.2,30.39,WNW,293,2.5,4.0,64,0.00,,,0.01,WUHU216HW,2013-01-12 22:17:00,
2013-01-12 17:22:00,37.3,26.2,30.39,NNW,338,1.3,4.0,64,0.00,,,0.01,WUHU216HW,2013-01-12 22:22:00,
2013-01-12 17:27:00,37.1,26.4,30.39,NNE,23,3.6,5.4,65,0.00,,,0.01,WUHU216HW,2013-01-12 22:27:00,
2013-01-12 17:32:00,37.1,26.7,30.39,NW,315,1.3,5.4,66,0.00,,,0.01,WUHU216HW,2013-01-12 22:32:00,
2013-01-12 17:37:00,36.9,26.2,30.39,NNE,23,3.4,3.4,65,0.00,,,0.01,WUHU216HW,2013-01-12 22:37:00,
2013-01-12 17:42:00,36.9,26.2,30.39,NNE,23,3.1,5.6,65,0.00,,,0.01,WUHU216HW,2013-01-12 22:42:00,
2013-01-12 17:47:00,37.1,26.7,30.39,NNE,23,4.3,5.6,66,0.00,,,0.01,WUHU216HW,2013-01-12 22:47:00,
2013-01-12 17:52:00,36.9,26.6,30.39,North,0,1.1,4.3,66,0.00,,,0.01,WUHU216HW,2013-01-12 22:52:00,
2013-01-12 17:57:00,36.9,27.0,30.39,NW,315,2.0,2.0,67,0.00,,,0.01,WUHU216HW,2013-01-12 22:57:00,
2013-01-12 18:02:00,36.9,26.6,30.39,NE,45,3.8,3.8,66,0.00,,,0.01,WUHU216HW,2013-01-12 23:02:00,
2013-01-12 18:07:00,36.9,26.2,30.39,NNW,338,4.3,4.3,65,0.00,,,0.01,WUHU216HW,2013-01-12 23:07:00,
2013-01-12 18:12:00,36.7,26.0,30.39,NNE,23,2.0,4.3,65,0.00,,,0.01,WUHU216HW,2013-01-12 23:12:00,
2013-01-12 18:17:00,36.7,26.5,30.39,NNE,23,0.9,3.4,66,0.00,,,0.01,WUHU216HW,2013-01-12 23:17:00,
2013-01-12 18:22:00,36.7,26.5,30.39,North,0,5.6,5.6,66,0.00,,,0.01,WUHU216HW,2013-01-12 23:22:00,
2013-01-12 18:27:00,36.5,25.9,30.40,North,0,1.6,5.6,65,0.00,,,0.01,WUHU216HW,2013-01-12 23:27:00,
2013-01-12 18:32:00,36.5,25.5,30.40,NW,315,0.9,5.1,64,0.00,,,0.01,WUHU216HW,2013-01-12 23:32:00,
2013-01-12 18:37:00,36.5,25.9,30.40,NNE,23,4.0,4.5,65,0.00,,,0.01,WUHU216HW,2013-01-12 23:37:00,
2013-01-12 18:42:00,36.4,25.8,30.40,North,0,0.9,4.0,65,0.00,,,0.01,WUHU216HW,2013-01-12 23:42:00,
2013-01-12 18:47:00,36.4,26.1,30.40,NNE,23,2.9,2.9,66,0.00,,,0.01,WUHU216HW,2013-01-12 23:47:00,
2013-01-12 18:52:00,36.2,25.6,30.39,NE,45,2.9,2.9,65,0.00,,,0.01,WUHU216HW,2013-01-12 23:52:00,
2013-01-12 18:57:00,36.0,25.4,30.39,NNE,23,1.1,3.4,65,0.00,,,0.01,WUHU216HW,2013-01-12 23:57:00,
2013-01-12 19:02:00,35.8,25.6,30.39,North,0,0.4,3.4,66,0.00,,,0.01,WUHU216HW,2013-01-13 00:02:00,
2013-01-12 19:07:00,35.6,25.7,30.39,NE,45,0.4,1.1,67,0.00,,,0.01,WUHU216HW,2013-01-13 00:07:00,
2013-01-12 19:12:00,35.6,25.7,30.39,North,0,0.9,1.3,67,0.00,,,0.01,WUHU216HW,2013-01-13 00:12:00,
2013-01-12 19:17:00,35.6,25.7,30.39,NE,45,2.7,2.7,67,0.00,,,0.01,WUHU216HW,2013-01-13 00:17:00,
2013-01-12 19:22:00,35.5,25.6,30.39,North,0,0.7,2.7,67,0.00,,,0.01,WUHU216HW,2013-01-13 00:22:00,
2013-01-12 19:27:00,35.3,25.7,30.39,NNE,23,0.2,1.6,68,0.00,,,0.01,WUHU216HW,2013-01-13 00:27:00,
2013-01-12 19:32:00,35.3,25.7,30.39,NE,45,0.9,1.8,68,0.00,,,0.01,WUHU216HW,2013-01-13 00:32:00,
2013-01-12 19:37:00,35.1,25.9,30.40,NNE,23,0.4,1.8,69,0.00,,,0.01,WUHU216HW,2013-01-13 00:37:00,
2013-01-12 19:42:00,34.9,26.1,30.40,North,0,0.7,1.1,70,0.00,,,0.01,WUHU216HW,2013-01-13 00:42:00,
2013-01-12 19:48:00,34.9,26.1,30.39,NNE,23,0.0,1.1,70,0.00,,,0.01,WUHU216HW,2013-01-13 00:48:00,
2013-01-12 19:53:00,34.7,26.3,30.39,North,0,0.0,1.3,71,0.00,,,0.01,WUHU216HW,2013-01-13 00:53:00,
2013-01-12 19:58:00,34.6,26.1,30.39,NNE,23,1.3,1.3,71,0.00,,,0.01,WUHU216HW,2013-01-13 00:58:00,
2013-01-12 20:02:00,34.4,25.9,30.40,North,0,0.2,2.0,71,0.00,,,0.01,WUHU216HW,2013-01-13 01:02:00,
2013-01-12 20:08:00,34.2,25.8,30.40,North,0,0.0,2.0,71,0.00,,,0.01,WUHU216HW,2013-01-13 01:08:00,
2013-01-12 20:13:00,34.2,25.8,30.40,North,0,0.4,0.4,71,0.00,,,0.01,WUHU216HW,2013-01-13 01:13:00,
2013-01-12 20:18:00,34.0,25.6,30.40,North,0,0.4,0.7,71,0.00,,,0.01,WUHU216HW,2013-01-13 01:18:00,
2013-01-12 20:22:00,34.0,25.8,30.40,North,0,0.0,0.7,72,0.00,,,0.01,WUHU216HW,2013-01-13 01:22:00,
2013-01-12 20:28:00,33.8,25.7,30.40,North,0,0.4,0.4,72,0.00,,,0.01,WUHU216HW,2013-01-13 01:28:00,
2013-01-12 20:33:00,33.8,25.7,30.40,North,0,0.2,0.7,72,0.00,,,0.01,WUHU216HW,2013-01-13 01:33:00,
2013-01-12 20:38:00,34.0,25.6,30.40,ENE,68,1.1,1.6,71,0.00,,,0.01,WUHU216HW,2013-01-13 01:38:00,
2013-01-12 20:43:00,34.0,25.8,30.40,NNE,23,0.2,1.6,72,0.00,,,0.01,WUHU216HW,2013-01-13 01:43:00,
2013-01-12 20:48:00,34.0,25.6,30.40,North,0,0.4,1.1,71,0.00,,,0.01,WUHU216HW,2013-01-13 01:48:00,
2013-01-12 20:53:00,34.0,25.6,30.40,NNE,23,1.1,1.1,71,0.00,,,0.01,WUHU216HW,2013-01-13 01:53:00,
2013-01-12 20:58:00,33.8,25.7,30.40,North,0,0.0,1.1,72,0.00,,,0.01,WUHU216HW,2013-01-13 01:58:00,
2013-01-12 21:03:00,33.8,26.0,30.40,NNE,23,0.0,1.1,73,0.00,,,0.01,WUHU216HW,2013-01-13 02:03:00,
2013-01-12 21:08:00,33.7,25.8,30.40,North,0,0.0,1.1,73,0.00,,,0.01,WUHU216HW,2013-01-13 02:08:00,
2013-01-12 21:13:00,33.5,25.7,30.40,North,0,0.4,1.6,73,0.00,,,0.01,WUHU216HW,2013-01-13 02:13:00,
2013-01-12 21:18:00,33.5,26.0,30.40,North,0,0.0,1.6,74,0.00,,,0.01,WUHU216HW,2013-01-13 02:18:00,
2013-01-12 21:23:00,33.5,26.0,30.41,North,0,0.0,0.4,74,0.00,,,0.01,WUHU216HW,2013-01-13 02:23:00,
2013-01-12 21:28:00,33.3,26.2,30.41,North,0,0.0,0.9,75,0.00,,,0.01,WUHU216HW,2013-01-13 02:28:00,
2013-01-12 21:33:00,33.3,26.2,30.41,North,0,0.2,0.9,75,0.00,,,0.01,WUHU216HW,2013-01-13 02:33:00,
2013-01-12 21:38:00,33.1,26.0,30.41,NW,315,0.4,0.7,75,0.00,,,0.01,WUHU216HW,2013-01-13 02:38:00,
2013-01-12 21:43:00,33.1,26.3,30.41,NNW,338,0.4,0.7,76,0.00,,,0.01,WUHU216HW,2013-01-13 02:43:00,
2013-01-12 21:48:00,32.8,26.0,30.41,NNW,338,0.9,0.9,76,0.00,,,0.01,WUHU216HW,2013-01-13 02:48:00,
2013-01-12 21:53:00,32.8,26.3,30.41,NW,315,0.4,0.9,77,0.00,,,0.01,WUHU216HW,2013-01-13 02:53:00,
2013-01-12 21:58:00,32.6,26.2,30.41,NW,315,0.0,0.4,77,0.00,,,0.01,WUHU216HW,2013-01-13 02:58:00,
2013-01-12 22:03:00,32.4,26.3,30.41,NW,315,0.0,0.2,78,0.00,,,0.01,WUHU216HW,2013-01-13 03:03:00,
2013-01-12 22:08:00,32.4,26.3,30.41,NW,315,0.2,0.2,78,0.00,,,0.01,WUHU216HW,2013-01-13 03:08:00,
2013-01-12 22:13:00,32.4,26.3,30.41,NNW,338,0.4,0.4,78,0.00,,,0.01,WUHU216HW,2013-01-13 03:13:00,
2013-01-12 22:18:00,32.4,26.3,30.41,NNW,338,0.0,0.4,78,0.00,,,0.01,WUHU216HW,2013-01-13 03:18:00,
2013-01-12 22:23:00,32.4,26.3,30.41,NNW,338,0.0,0.2,78,0.00,,,0.01,WUHU216HW,2013-01-13 03:23:00,
2013-01-12 22:28:00,32.4,26.3,30.41,NNW,338,0.0,0.0,78,0.00,,,0.01,WUHU216HW,2013-01-13 03:28:00,
2013-01-12 22:33:00,32.4,26.3,30.41,NNW,338,0.2,0.2,78,0.00,,,0.01,WUHU216HW,2013-01-13 03:33:00,
2013-01-12 22:38:00,32.2,26.2,30.41,NNW,338,0.0,0.4,78,0.00,,,0.01,WUHU216HW,2013-01-13 03:38:00,
2013-01-12 22:43:00,32.2,26.5,30.41,NNW,338,0.4,0.4,79,0.00,,,0.01,WUHU216HW,2013-01-13 03:43:00,
2013-01-12 22:48:00,32.0,26.3,30.41,NNW,338,0.0,0.4,79,0.00,,,0.01,WUHU216HW,2013-01-13 03:48:00,
2013-01-12 22:53:00,32.0,26.3,30.41,NNW,338,0.4,0.4,79,0.00,,,0.01,WUHU216HW,2013-01-13 03:53:00,
2013-01-12 22:58:00,32.0,26.3,30.41,NNW,338,0.0,0.4,79,0.00,,,0.01,WUHU216HW,2013-01-13 03:58:00,
2013-01-12 23:03:00,32.0,26.3,30.41,NNW,338,0.0,0.2,79,0.00,,,0.01,WUHU216HW,2013-01-13 04:03:00,
2013-01-12 23:08:00,32.0,26.3,30.41,NNW,338,0.0,0.2,79,0.00,,,0.01,WUHU216HW,2013-01-13 04:08:00,
2013-01-12 23:13:00,32.0,26.3,30.40,NNW,338,0.0,0.2,79,0.00,,,0.01,WUHU216HW,2013-01-13 04:13:00,
2013-01-12 23:18:00,32.0,26.6,30.40,NNW,338,0.2,0.2,80,0.00,,,0.01,WUHU216HW,2013-01-13 04:18:00,
2013-01-12 23:23:00,32.0,26.6,30.41,NNW,338,0.0,0.4,80,0.00,,,0.01,WUHU216HW,2013-01-13 04:23:00,
2013-01-12 23:28:00,32.0,26.6,30.41,NNW,338,0.0,0.4,80,0.00,,,0.01,WUHU216HW,2013-01-13 04:28:00,
2013-01-12 23:33:00,32.0,26.6,30.41,NNW,338,0.0,0.4,80,0.00,,,0.01,WUHU216HW,2013-01-13 04:33:00,
2013-01-12 23:38:00,32.0,26.6,30.41,NNW,338,0.0,0.4,80,0.00,,,0.01,WUHU216HW,2013-01-13 04:38:00,
2013-01-12 23:43:00,31.9,26.1,30.41,NNW,338,0.4,0.4,79,0.00,,,0.01,WUHU216HW,2013-01-13 04:43:00,
2013-01-12 23:48:00,31.7,26.3,30.42,NNW,338,0.0,0.4,80,0.00,,,0.01,WUHU216HW,2013-01-13 04:48:00,
2013-01-12 23:53:00,31.5,26.1,30.41,NNW,338,0.0,0.4,80,0.00,,,0.01,WUHU216HW,2013-01-13 04:53:00,
2013-01-12 23:58:00,31.5,26.1,30.41,NNW,338,0.0,0.4,80,0.00,,,0.01,WUHU216HW,2013-01-13 04:58:00,